Temp
40 40 39 38 37 34 33 32 30 28 25 24 23 23 23 24 24 24 24 26 26 27 27 27 27 26 26 25 25 25 25 25 25
40 40 40 38 37 35 33 32 30 29 26 24 24 24 23 23 24 24 25 26 27 26 27 27 27 26 26 25 25 25 25 24 25
40 40 39 39 38 36 34 33 31 30 26 25 24 25 24 23 24 24 25 26 26 26 26 27 27 26 25 25 25 25 25 24 24
40 39 38 38 37 36 34 33 31 30 27 26 25 25 25 24 24 24 24 24 25 26 26 26 26 26 26 26 26 26 25 24 24
40 38 38 38 37 36 35 33 32 31 30 27 26 26 26 25 25 24 24 24 25 25 25 25 26 26 26 25 25 25 25 25 24
38 38 37 37 37 34 34 33 33 31 30 29 27 27 26 26 26 25 25 25 25 25 25 25 25 25 25 24 24 24 25 24 24
38 37 37 36 36 35 34 33 32 32 31 30 29 28 27 27 26 26 26 26 25 25 25 25 24 25 25 24 24 24 24 25 24
38 37 37 36 35 33 32 32 31 32 31 30 30 29 28 27 27 27 26 26 27 26 26 25 25 24 24 25 25 24 25 25 25
37 36 36 36 35 34 32 32 31 31 31 30 30 29 28 27 27 27 27 27 26 26 25 25 25 25 25 24 25 25 25 25 25
34 35 35 35 35 34 33 32 31 30 31 30 30 29 29 27 27 26 26 26 26 26 25 25 25 24 24 24 24 24 24 22 23
33 33 34 35 34 34 33 32 32 31 30 30 29 29 28 27 27 26 26 26 26 26 25 25 24 24 24 24 24 23 20 21 21
33 33 33 33 34 33 32 31 31 30 29 29 29 28 28 27 27 26 26 26 25 25 25 24 24 23 23 21 21 21 20 20 20
32 33 33 32 33 33 32 31 31 29 29 28 28 27 27 27 26 26 25 25 25 25 24 23 23 21 21 21 20 20 20 18 17
31 32 32 31 32 31 30 29 30 29 28 28 26 26 26 26 25 25 23 23 21 21 20 20 21 21 21 20 20 19 19 18 16
30 31 31 31 31 30 29 29 29 28 24 20 21 20 20 21 21 20 19 19 19 19 20 20 20 20 20 21 20 20 19 16 15
30 29 30 30 31 28 27 28 28 24 19 19 19 19 18 19 19 18 18 18 18 18 19 20 20 20 22 23 21 20 18 16 14
28 28 28 30 30 27 26 25 25 23 19 19 19 18 17 17 17 17 17 17 18 18 19 20 22 22 21 21 19 18 17 14 13
27 28 27 29 28 27 26 25 24 20 19 19 19 18 17 17 16 16 17 17 18 17 17 18 19 19 19 18 17 16 15 13 13
26 26 26 27 27 26 25 24 22 21 19 19 19 19 19 19 18 17 15 14 14 16 17 16 17 18 18 17 17 16 15 14 13
26 26 25 26 26 25 25 24 22 21 20 20 20 20 20 19 19 18 17 16 16 14 14 16 17 17 18 18 18 17 16 15 14
Height
693 697 700 707 717 729 741 751 760 768 778 787 793 797 801 805 810 813 815 818 820 822 823 824 825 826 829 831 832 834 836 837 838
693 695 697 702 710 721 733 743 754 762 771 780 788 793 797 801 805 809 812 814 816 818 820 821 821 823 826 830 830 832 834 835 837
693 692 697 703 705 714 727 737 748 757 766 773 781 788 793 796 800 804 808 811 813 816 817 819 821 824 825 826 829 829 831 833 834
690 692 697 702 704 710 721 733 743 752 761 770 777 784 788 792 796 800 805 808 810 813 815 817 818 821 822 824 825 827 829 830 830
688 691 696 698 703 708 717 727 736 747 755 764 770 777 783 788 792 797 800 803 806 808 811 814 816 818 819 821 822 824 825 827 827
689 692 695 698 701 706 713 723 731 741 750 758 765 771 777 783 787 791 794 797 800 803 806 808 811 814 815 817 818 819 821 822 822
690 691 693 697 700 705 712 720 728 736 744 752 759 765 770 774 778 782 786 790 793 796 799 802 805 808 810 811 814 815 815 816 817
689 692 693 697 700 705 712 719 726 733 740 746 752 758 762 767 772 778 783 786 789 792 795 797 800 803 805 806 807 808 808 810 811
692 695 692 695 699 704 711 717 723 729 734 740 746 752 757 763 768 773 776 780 783 785 788 792 794 796 798 801 802 800 800 801 804
697 696 695 693 698 702 708 715 721 726 731 737 742 748 753 758 762 767 771 774 777 780 782 786 788 791 792 793 795 797 794 797 798
702 701 697 695 697 701 705 712 719 726 730 734 739 744 748 753 757 761 765 768 771 775 778 781 784 786 789 790 789 790 794 793 794
702 701 701 699 700 703 705 710 715 722 728 733 737 741 744 748 752 755 759 763 767 771 773 775 778 783 786 787 787 789 790 791 791
706 704 703 703 702 703 707 711 714 719 724 730 735 739 743 747 750 754 757 760 761 766 768 772 775 776 780 783 787 787 788 789 789
708 705 705 706 703 705 709 712 715 719 724 729 734 738 741 745 749 751 753 757 758 760 764 769 773 776 779 781 784 785 787 786 786
711 708 706 707 704 707 710 713 716 720 725 730 734 738 742 744 748 752 756 759 763 766 767 771 774 776 780 779 777 783 785 784 782
715 713 709 708 706 709 714 716 717 721 729 732 736 740 742 746 749 754 759 764 764 767 769 771 774 775 776 777 776 780 783 782 779
718 715 711 708 706 709 716 719 721 722 727 732 737 739 743 747 751 755 759 763 766 767 771 772 774 775 775 775 777 779 781 779 777
719 716 713 707 705 710 715 719 722 725 727 730 735 739 743 747 752 755 759 764 765 770 771 774 775 776 777 779 773 779 776 778 778
717 716 713 708 707 710 714 716 721 726 729 730 733 738 743 748 752 756 759 761 765 767 770 774 776 779 776 775 775 778 776 778 777
712 713 712 709 709 708 713 717 721 727 730 731 734 737 742 749 753 756 760 763 765 768 770 772 774 773 775 773 777 777 777 778 777
Wind_Speed
10 14 17 17 20 25 29 28 32 32 32 29 28 29 28 24 24 22 23 19 22 21 18 20 10 24 19 19 13 13 12 11 11
11 10 5 16 18 26 31 30 32 32 34 31 30 28 29 28 27 23 23 18 22 11 17 10 16 23 22 18 15 15 15 14 14
9 9 7 4 15 24 30 31 32 31 35 35 33 29 29 30 28 28 22 24 18 18 16 13 12 12 20 15 15 15 15 15 15
7 7 9 6 8 23 30 31 31 31 33 31 30 30 29 28 29 27 26 20 22 23 18 18 21 19 12 13 14 15 17 16 19
5 8 5 4 8 19 27 30 29 31 30 31 32 32 30 29 26 25 25 26 24 23 25 22 18 20 22 19 16 17 17 19 20
7 7 8 7 9 13 21 28 28 30 30 29 31 30 30 29 27 27 26 27 27 25 24 24 22 22 20 20 22 21 21 20 20
3 6 6 6 9 12 19 26 27 26 30 30 30 31 32 31 32 31 31 27 30 27 27 26 25 24 23 24 23 23 23 23 22
4 7 5 6 8 9 13 19 25 25 29 30 30 31 31 32 30 29 27 27 24 28 26 26 25 24 24 22 23 23 24 25 23
2 7 7 6 9 11 12 17 23 26 26 30 31 29 29 28 28 28 27 27 28 26 27 25 25 26 23 23 23 25 24 23 22
11 6 8 7 9 11 18 18 22 23 23 28 27 27 26 26 27 27 27 27 26 26 25 24 24 23 23 24 22 25 24 22 14
8 8 9 3 5 7 18 24 21 20 22 20 25 24 23 25 26 27 26 26 26 24 23 23 22 20 20 20 17 20 12 11 15
7 5 6 9 6 8 12 21 20 23 20 21 18 22 22 23 22 23 25 24 24 22 23 21 18 16 13 8 7 8 11 13 12
10 10 2 9 9 10 9 11 15 20 18 19 17 17 17 18 20 19 21 22 24 21 19 17 15 13 9 5 6 7 10 11 11
13 13 8 7 10 7 9 11 14 16 16 15 12 13 15 17 15 17 15 17 15 21 17 17 11 9 8 7 3 6 9 12 12
13 12 9 6 9 9 11 11 14 15 14 14 13 12 13 15 15 17 19 17 15 13 15 15 10 8 7 8 6 5 8 9 14
11 16 11 5 11 12 7 5 14 16 15 16 16 16 15 18 19 17 14 13 15 11 12 11 12 11 8 6 7 6 7 13 15
9 14 18 8 14 14 10 10 8 13 18 20 18 17 17 17 18 17 17 14 10 6 4 6 8 5 7 8 9 8 13 13 13
8 13 18 9 6 7 9 16 16 17 22 21 19 19 18 19 19 20 22 18 15 11 11 9 10 11 9 9 13 12 16 10 13
9 11 18 16 9 11 12 16 18 19 21 22 23 21 19 18 19 19 15 18 17 13 13 8 2 2 6 9 8 8 12 5 12
10 12 17 17 11 13 17 16 18 21 21 21 20 19 19 19 18 17 16 14 13 14 16 16 16 13 11 11 7 4 3 5 6
Wind_Direction
212 185 186 184 177 173 174 176 173 171 174 184 193 193 196 200 201 204 212 225 216 221 213 225 246 217 211 217 219 238 247 255 255
215 203 194 171 176 174 172 176 174 174 174 182 192 195 195 198 204 206 212 217 216 223 234 236 217 218 212 219 218 229 238 243 257
212 141 128 246 179 172 173 174 173 175 175 182 188 196 197 198 202 207 210 222 226 226 237 242 237 220 210 216 224 233 239 242 255
198 160 150 192 188 174 169 172 171 177 175 182 185 195 196 200 202 206 213 218 223 229 232 237 246 251 239 239 235 241 242 241 251
300 122 137 219 202 171 169 171 174 179 181 184 188 195 197 200 200 203 207 216 220 222 229 233 236 241 243 240 243 244 246 247 248
137 158 166 249 190 172 171 173 179 181 186 188 189 194 196 196 199 201 207 209 215 221 222 227 228 233 234 237 241 246 248 248 248
65 175 158 232 193 176 174 173 179 182 184 189 189 193 194 195 199 202 206 211 209 212 218 219 220 226 233 234 237 242 247 250 249
201 206 174 209 191 169 166 167 178 185 185 188 193 192 194 199 201 205 207 211 214 212 214 220 221 227 233 236 236 238 242 245 250
306 17 143 189 184 168 175 176 180 185 186 192 193 194 198 195 198 203 208 210 212 214 211 216 221 224 230 235 237 241 246 244 246
32 28 333 165 190 182 180 190 182 189 192 193 196 198 195 194 197 203 208 209 210 211 209 213 220 225 230 236 244 253 270 260 253
39 355 344 301 181 198 182 186 192 193 197 198 198 199 195 196 200 204 207 209 209 208 210 212 219 226 235 243 244 249 244 279 279
343 355 327 309 226 197 182 181 191 186 194 200 198 199 201 204 203 201 205 207 208 209 210 213 218 227 226 217 243 277 285 289 295
343 322 333 311 255 198 174 173 179 175 187 190 200 199 203 204 206 213 206 206 207 210 205 192 177 172 177 202 226 272 286 303 319
330 323 324 261 255 188 172 190 180 176 179 183 186 199 205 202 206 217 196 187 172 178 147 148 153 163 180 185 223 269 293 302 315
328 321 310 250 241 165 166 174 172 170 126 129 136 141 137 137 139 131 124 121 132 138 141 146 154 166 212 225 167 257 285 319 329
320 327 308 240 252 139 156 168 177 137 141 144 144 134 131 138 132 122 121 136 141 146 145 155 176 186 203 123 75 10 339 347 330
323 313 318 249 242 145 173 178 189 147 152 154 150 142 137 143 143 136 134 128 130 127 213 211 147 139 99 87 70 14 321 326 340
303 302 305 273 162 162 188 180 180 156 161 161 157 146 142 139 143 148 137 126 123 92 76 63 111 83 89 88 68 39 35 21 353
277 291 298 305 171 175 221 169 154 164 168 161 152 149 153 155 153 153 147 141 133 146 159 185 284 183 114 82 63 45 47 36 24
257 258 278 283 241 197 197 176 165 167 171 159 157 153 154 158 162 163 161 161 158 154 150 155 155 146 138 103 89 36 17 42 27